Home   Weather   Randers   Past weeks

Flag for Denmark Past Weather in Randers, Denmark — Yesterday and Last 2 Weeks

Now
37 °F

Fog.


Feels Like: 34 °F
Forecast: 33 / 40 °F
Wind: 5 mph from Southwest

Location: Tirstrup

Current Time: Jan 24, 2017 at 6:51:43 pm

Latest Report: Jan 24, 2017 at 6:20 pm


Visibility: 3 mi

Pressure: 30.33 "Hg

Humidity: 100%

Dew Point: 37 °F

Location of RandersLocation

Past Weather in Randers — Graph

°F

Randers Temperature Yesterday

Maximum temperature yesterday: 39 °F (at 12:50 pm)
Minimum temperature yesterday: 32 °F (at 10:20 pm)
Average temperature yesterday: 36 °F

High & Low Weather Summary for the Past Weeks

 TemperatureHumidityPressure
High48 °F (Jan 20, 2:20 pm)100% (Jan 10, 3:20 am)30.60 "Hg (Jan 10, 3:20 am)
Low18 °F (Jan 17, 2:20 am)60% (Jan 16, 3:20 pm)29.00 "Hg (Jan 11, 2:50 pm)
Average36 °F87%30.03 "Hg
* Reported Jan 9 5:20 pm — Jan 24 5:20 pm, Randers, Weather by CustomWeather, © 2017

Note: Actual official high and low records may vary slightly from our data, if they occured in-between our weather recording intervals... More about our weather records

Advertising

Randers Weather History for the Previous 24 Hours

Scroll right to see more
 ConditionsComfort  
Time TempWeatherWind HumidityBarometerVisibility
5:20 pm
Tue, Jan 24
39 °FPassing clouds.3 mph100%30.33 "Hg5 mi
4:50 pm39 °FPassing clouds.5 mph100%30.33 "Hg3 mi
4:20 pm39 °FPassing clouds.3 mph100%30.33 "Hg4 mi
3:50 pm41 °FPartly sunny.6 mph100%30.30 "Hg6 mi
3:20 pm41 °FPartly sunny.5 mph100%30.30 "Hg4 mi
2:50 pm41 °FMostly cloudy.6 mph100%30.30 "Hg4 mi
2:20 pm41 °FPartly sunny.6 mph100%30.30 "Hg3 mi
1:50 pm41 °FPartly sunny.6 mph100%30.27 "Hg3 mi
1:20 pm41 °FFog.7 mph100%30.30 "Hg1 mi
12:50 pm39 °FFog.5 mph100%30.27 "Hg1 mi
12:20 pm39 °FFog.6 mph100%30.27 "Hg0 mi
11:50 am39 °FFog.6 mph100%30.27 "Hg0 mi
11:20 am37 °FFog.6 mph100%30.27 "Hg0 mi
10:50 am37 °FFog.6 mph100%30.27 "Hg0 mi
10:20 am36 °FFog.7 mph100%30.27 "Hg0 mi
9:50 am36 °FFog.7 mph100%30.24 "Hg1 mi
9:20 am34 °FFog.6 mph100%30.24 "Hg0 mi
8:50 am34 °FFog.7 mph100%30.24 "Hg0 mi
8:20 am34 °FFog.6 mph100%30.24 "Hg0 mi
7:50 am32 °FIce fog.6 mph100%30.24 "Hg2 mi
7:20 am30 °FChilly.6 mph100%30.21 "Hg3 mi
6:50 am32 °FIce fog.5 mph93%30.21 "Hg3 mi
6:20 am30 °FPassing clouds.5 mph100%30.21 "Hg3 mi
5:50 am30 °FChilly.5 mph93%30.21 "Hg3 mi
5:20 am30 °FChilly.5 mph100%30.18 "Hg3 mi
4:50 am30 °FChilly.7 mph100%30.18 "Hg3 mi
4:20 am30 °FChilly.6 mph100%30.18 "Hg3 mi
3:50 am30 °FIce fog.6 mph100%30.18 "Hg3 mi
3:20 am32 °FChilly.5 mph100%30.18 "Hg4 mi
2:50 am32 °FChilly.5 mph100%30.18 "Hg3 mi
2:20 am32 °FIce fog.6 mph100%30.18 "Hg2 mi
1:50 am32 °FIce fog.6 mph93%30.18 "Hg2 mi
1:20 am32 °FIce fog.5 mph100%30.18 "Hg2 mi
12:50 am32 °FIce fog.5 mph100%30.18 "Hg2 mi
12:20 am32 °FIce fog.6 mph100%30.18 "Hg2 mi
11:50 pm
Mon, Jan 23
32 °FIce fog.5 mph93%30.18 "Hg2 mi
11:20 pm32 °FIce fog.6 mph100%30.18 "Hg2 mi
10:50 pm32 °FIce fog.6 mph100%30.18 "Hg2 mi
10:20 pm32 °FIce fog.5 mph100%30.18 "Hg2 mi
9:50 pm34 °FFog.6 mph93%30.18 "Hg2 mi
9:20 pm34 °FFog.6 mph100%30.18 "Hg2 mi
8:50 pm36 °FFog.7 mph93%30.18 "Hg2 mi
8:20 pm36 °FFog.6 mph93%30.15 "Hg2 mi
7:50 pm36 °FFog.5 mph93%30.15 "Hg3 mi
7:20 pm37 °FPassing clouds.5 mph87%30.15 "Hg3 mi
6:50 pm37 °FPassing clouds.5 mph87%30.18 "Hg3 mi
6:20 pm37 °FOvercast.6 mph87%30.18 "Hg3 mi
Weather by CustomWeather, © 2017

See weather overviewHow to use our weather pages